Hourly Data Report for October 17, 2018

VICTORIA UNIVERSITY CS
BRITISH COLUMBIA
Current Station Operator: ECCC - MSC

48°27'25.200" N
123°18'16.600" W
60.10 m
1018598
71783
WYJ

Download Data

Hourly Data (October 2018)
Hourly Data Report for October 17, 2018
TIME
LST
Temp Definition
°C
Dew Point Definition
°C
Rel Hum Definition
%
Precip. Amount Definition
mm

Wind Dir Definition
10's deg

Wind Spd Definition
km/h
Visibility Definition
km
Stn Press Definition
kPa
Hmdx Definition


Wind Chill Definition


Weather Definition


00:00 10.7 5.9 72 0.0 36 4   101.62     LegendNANA
01:00 10.9 6.2 73 0.0 34 7   101.60     LegendNANA
02:00 10.9 5.3 68 0.0 33 7   101.58     LegendNANA
03:00 11.4 5.2 66 0.0 34 9   101.57     LegendNANA
04:00 11.1 6.1 71 0.0 35 7   101.55     LegendNANA
05:00 11.4 5.1 65 0.0 34 9   101.54     LegendNANA
06:00 11.1 5.3 67 0.0 35 7   101.51     LegendNANA
07:00 11.6 5.6 67 0.0 36 6   101.52     LegendNANA
08:00 12.7 5.9 63 0.0 1 7   101.53     LegendNANA
09:00 13.9 6.5 61 0.0 1 10   101.54     LegendNANA
10:00 14.6 6.1 57 0.0 36 11   101.53     LegendNANA
11:00 15.3 6.4 55 0.0 2 9   101.51     LegendNANA
12:00 16.2 5.7 50 0.0 2 9   101.45     LegendNANA
13:00 16.6 6.6 52 0.0 2 7   101.36     LegendNANA
14:00 16.7 6.2 50 0.0 2 8   101.29     LegendNANA
15:00 17.8 5.6 45 0.0 4 3   101.23     LegendNANA
16:00 16.5 6.2 50 0.0 1 4   101.20     LegendNANA
17:00 13.7 6.2 61 0.0 14 1   101.18     LegendNANA
18:00 10.6 7.3 80 0.0 25 2   101.18     LegendNANA
19:00 9.0 6.0 82 0.0 26 3   101.18     LegendNANA
20:00 8.1 5.4 83 0.0 27 3   101.18     LegendNANA
21:00 8.0 5.7 85 0.0 30 3   101.23     LegendNANA
22:00 8.0 6.0 87 0.0 33 1   101.23     LegendNANA
23:00 6.9 5.2 89 0.0 26 1   101.23     LegendNANA

Notes on Data Quality.

Legend

  • E = Estimated
  • M = Missing
  • NA = Not Available*
  • [empty] = Indicates an unobserved value
Date modified: